Weather History for PAKV - October, 2012

Change the Weather History Date:

Monday, October 15, 2012

  Actual Average (PAGA) Record (PAGA)
Temperature  
Mean Temperature 24 °F -  
Max Temperature 28 °F 30 °F 45 °F (2013)
Min Temperature 19 °F 21 °F -8 °F (1996)
Degree Days  
Heating Degree Days 42    
Moisture  
Dew Point 6 °F    
Average Humidity 49    
Maximum Humidity 72    
Minimum Humidity 34    
Precipitation  
Precipitation 0.00 in - - ()
Sea Level Pressure  
Sea Level Pressure 29.51 in    
Wind  
Wind Speed 4 mph (NNW)    
Max Wind Speed 14 mph    
Max Gust Speed 21 mph    
Visibility 10 miles    
Events      
Averages and records for this station are not official NWS values.
T = Trace of Precipitation, MM = Missing Value Source: NWS Daily Summary

Daily Weather History Graph

Daily Weather History Graph

Search for Another Location

Airport or City:

Trip Planner

Search our weather history database for the weather conditions in past years. The results will help you decide how hot, cold, wet, or windy it might be!

Date:

Astronomy

Oct. 15, 2012 Rise Set
Actual Time 9:28 AM AKDT 7:11 PM AKDT
Civil Twilight 8:38 AM AKDT 8:00 PM AKDT
Nautical Twilight 7:43 AM AKDT 8:56 PM AKDT
Astronomical Twilight 6:46 AM AKDT 9:52 PM AKDT
Moon 10:21 AM AKDT (10/15) 6:42 PM AKDT (10/15)
Length of Visible Light 11h 22m
Length of Day
9h 43m
New Moon, 0% of the Moon is Illuminated
Oct 15
New Moon
Oct 21
First Quarter
Oct 29
Full
Nov 6
Last Quarter
Nov 13
New

Hourly Weather History & Observations

Time (AKDT) Temp. Windchill Dew Point Humidity Pressure Visibility Wind Dir Wind Speed Gust Speed Precip Events Conditions
12:53 AM 21.9 °F - 14.0 °F 72% 29.48 in 10.0 mi Calm Calm - N/A   Clear
1:53 AM 21.9 °F - 14.0 °F 72% 29.47 in 10.0 mi Calm Calm - N/A   Clear
2:53 AM 25.0 °F 18.1 °F 12.9 °F 60% 29.47 in 10.0 mi North 5.8 mph - N/A   Clear
3:53 AM 23.0 °F 18.4 °F 10.9 °F 60% 29.48 in 10.0 mi Variable 3.5 mph - N/A   Clear
4:53 AM 19.9 °F - 10.0 °F 65% 29.49 in 10.0 mi Calm Calm - N/A   Clear
5:53 AM 21.0 °F - 10.0 °F 63% 29.49 in 10.0 mi Calm Calm - N/A   Clear
6:53 AM 21.0 °F 16.2 °F 7.0 °F 55% 29.49 in 10.0 mi NW 3.5 mph - N/A   Clear
7:53 AM 21.9 °F 15.7 °F 5.0 °F 48% 29.49 in 10.0 mi Variable 4.6 mph - N/A   Clear
8:53 AM 21.0 °F 12.4 °F 3.9 °F 48% 29.50 in 10.0 mi NNE 6.9 mph - N/A   Clear
9:53 AM 23.0 °F 13.1 °F 3.0 °F 42% 29.52 in 10.0 mi NNW 9.2 mph 18.4 mph N/A   Clear
10:53 AM 23.0 °F 14.7 °F 3.9 °F 44% 29.52 in 10.0 mi NW 6.9 mph - N/A   Clear
11:53 AM 25.0 °F 16.3 °F 5.0 °F 43% 29.52 in 10.0 mi NNW 8.1 mph - N/A   Clear
1:53 PM 27.0 °F 18.7 °F 3.9 °F 37% 29.52 in 10.0 mi North 8.1 mph - N/A   Clear
2:53 PM 28.0 °F 19.3 °F 3.0 °F 34% 29.52 in 10.0 mi NNW 9.2 mph 18.4 mph N/A   Clear
3:53 PM 28.0 °F 17.5 °F 3.0 °F 34% 29.51 in 10.0 mi NW 12.7 mph 20.7 mph N/A   Clear
4:53 PM 28.0 °F 17.0 °F 5.0 °F 38% 29.51 in 10.0 mi NNW 13.8 mph 20.7 mph N/A   Clear
5:53 PM 28.0 °F 18.1 °F 3.0 °F 34% 29.50 in 10.0 mi NNW 11.5 mph 20.7 mph N/A   Clear
6:53 PM 26.1 °F 16.8 °F 1.9 °F 35% 29.51 in 10.0 mi NNW 9.2 mph - N/A   Clear
7:53 PM 24.1 °F 19.7 °F 1.9 °F 38% 29.52 in 10.0 mi Variable 3.5 mph - N/A   Clear
8:53 PM 24.1 °F 14.4 °F 5.0 °F 44% 29.52 in 10.0 mi NNW 9.2 mph - N/A   Clear
9:53 PM 23.0 °F 13.1 °F 6.1 °F 48% 29.52 in 10.0 mi NNW 9.2 mph - N/A   Clear
10:53 PM 21.9 °F 17.2 °F 6.1 °F 51% 29.53 in 10.0 mi Variable 3.5 mph - N/A   Clear
11:53 PM 19.9 °F - 6.1 °F 55% 29.54 in 10.0 mi Calm Calm - N/A   Clear